User: anonymous
Location: Radomski Observatory
(40.2854°N, 79.5145°W)
Time: 18:50:05
(UTC-04:00)
Language:

Cosmos 1072 Rocket - Orbit

View from above orbital plane
View from above orbital plane
View from above satellite
View from above satellite

Ground track
Ground track

The orbit data is extracted from the following two-line orbital elements,

1 11239U 79003B   14292.46016894  .00000201  00000-0  19184-3 0  3815
2 11239 082.9364 089.8121 0040230 225.6561 186.8227 13.75742006794240
Epoch (UTC): 19 October 2014 11:02:38
Eccentricity: 0.0040230
inclination: 82.9364°
perigee height: 949 km
apogee height: 1008 km
right ascension of ascending node: 89.8121°
argument of perigee: 225.6561°
revolutions per day: 13.75742006
mean anomaly at epoch: 186.8227°
orbit number at epoch: 79424

The dashed part of the orbit path shows where the satellite is in the earth's shadow,  

DLR